Погода в Палезе

Франция     48°43′12″N   2°14′51″E
темп.,
°C
ветер,
м/с
пор.,
м/с
влажн.,
%
обл.,
%
осадки,
мм/ч
давл.,
гПа
погр.,
м
6 мая, чт
чт623:00+8зюз2676100 0.1 1014259
02:00+7зюз2765100 0.1 1012428
05:00+7юз1374100 0.1 1011236
08:00+7ююз4681100 0.1 1009621
11:00+6ююв4894100 1.4 1006613
14:00+9ююз4139592 2.8 1003950
17:00+12сз488797 2.5 1002869
20:00+7зсз4889100 2.8 1008991
7 мая, пт
пт723:00+7зсз378637 0.1 1011494
02:00+5з27925 0.1 1013244
05:00+4з37905 0.0 1014232
08:00+5з35855 0.0 1016203
11:00+11зсз23522 0.0 10171249
14:00+14сз223551 0.0 10172207
17:00+15з223294 0.0 10172504
20:00+13з2241100 0.0 10181065
8 мая, сб
сб823:00+10юв225485 0.0 101841
02:00+8ю247386 0.0 1017148
05:00+7ююв278172 0.0 1016210
08:00+8ююв31076100 0.0 1015306
11:00+13ю51064100 0.0 1014700
14:00+16ююз496795 0.0 10111077
17:00+21ююз694938 0.0 10091713
20:00+19ююз496183 0.0 10081093
9 мая, вс
вс923:00+15ююв287997 0.0 1007180
02:00+14юв31182100 0.0 1005273
05:00+14юв31288100 0.7 1001277
08:00+14ю51386100 1.1 1001452
11:00+20ю6135998 0.3 10011145
14:00+24ююз71345100 0.3 10001779
17:00+21ююз71465100 0.4 10001705
20:00+15ююз61489100 3.1 10011127
10 мая, пн
пн1023:00+14юз3896100 3.9 1001530
02:00+11ююз51291100 11.9 1004773
05:00+10ююз61291100 0.0 1006863
08:00+11ююз5108299 0.0 10061062
11:00+14юз585923 0.1 10071420
14:00+15ю4653100 0.2 10071695
17:00+15ю3462100 0.4 1006923
20:00+14ю3669100 0.6 1007619